Weather History for VIJP - September, 2012

Change the Weather History Date:

Monday, September 10, 2012

  Actual Average Record
Temperature  
Mean Temperature 84 °F -  
Max Temperature 91 °F - - ()
Min Temperature 77 °F - - ()
Cooling Degree Days 19    
Growing Degree Days 34 (Base 50)    
Moisture  
Dew Point 76 °F    
Average Humidity 83    
Maximum Humidity 100    
Minimum Humidity 60    
Precipitation  
Precipitation 0.39 in - - ()
Sea Level Pressure  
Sea Level Pressure 29.71 in    
Wind  
Wind Speed 2 mph ()    
Max Wind Speed 8 mph    
Max Gust Speed -    
Visibility 1.8 miles    
Events Rain , Thunderstorm    
T = Trace of Precipitation, MM = Missing Value Source: Averaged Metar Reports

Daily Weather History Graph

Daily Weather History Graph

Search for Another Location

Airport or City:

Trip Planner

Search our weather history database for the weather conditions in past years. The results will help you decide how hot, cold, wet, or windy it might be!

Date:

Astronomy

Sep. 10, 2012 Rise Set
Actual Time 6:10 AM IST 6:36 PM IST
Civil Twilight 5:46 AM IST 7:00 PM IST
Nautical Twilight 5:19 AM IST 7:27 PM IST
Astronomical Twilight 4:51 AM IST 7:54 PM IST
Moon 12:30 AM IST (9/10) 2:23 PM IST (9/10)
Length of Visible Light 13h 13m
Length of Day
12h 26m
Waning Crescent, 34% of the Moon is Illuminated
Sep 10
Waning Crescent
Sep 16
New
Sep 23
First Quarter
Sep 30
Full
Oct 8
Last Quarter

Hourly Weather History & Observations

Time (IST) Temp. Heat Index Dew Point Humidity Pressure Visibility Wind Dir Wind Speed Gust Speed Precip Events Conditions
12:00 AM 78.8 °F - 73.4 °F 83% 29.74 in 1.9 mi Calm Calm - N/A   Haze
1:00 AM 78.8 °F - 73.4 °F 83% 29.74 in 1.9 mi Calm Calm - N/A   Haze
2:00 AM 78.8 °F - 73.4 °F 83% 29.71 in 1.9 mi Calm Calm - N/A   Haze
2:30 AM 79 °F - 76 °F 86% 29.64 in 1 mi Calm Calm - -   Haze
2:30 AM 78.8 °F - 73.4 °F 83% 29.71 in 1.9 mi Calm Calm - N/A   Haze
4:00 AM 78.8 °F - 73.4 °F 83% 29.71 in 1.9 mi Variable 1.2 mph - N/A   Haze
5:00 AM 78.8 °F - 73.4 °F 83% 29.71 in 1.9 mi Variable 3.5 mph - N/A   Haze
5:30 AM 78 °F - 74 °F 83% 29.66 in 1 mi East 4.6 mph - -   Mist
6:00 AM 78.8 °F - 73.4 °F 83% 29.74 in 1.9 mi Variable 3.5 mph - N/A   Scattered Clouds
6:30 AM 78.8 °F - 73.4 °F 83% 29.74 in 1.9 mi Calm Calm - N/A   Scattered Clouds
7:00 AM 80.6 °F 85.4 °F 73.4 °F 79% 29.74 in 1.9 mi Variable 3.5 mph - N/A   Scattered Clouds
7:30 AM 80.6 °F 85.4 °F 73.4 °F 79% 29.74 in 1.9 mi East 4.6 mph - N/A   Scattered Clouds
8:00 AM 82.4 °F 88.2 °F 73.4 °F 74% 29.77 in 2.2 mi East 4.6 mph - N/A   Scattered Clouds
8:30 AM 84 °F - 78 °F 78% 29.70 in 1 mi East 5.8 mph - -   Mist
9:00 AM 84.2 °F 94.1 °F 77.0 °F 79% 29.77 in 2.5 mi ESE 6.9 mph - N/A   Haze
9:30 AM 84.2 °F 96.1 °F 78.8 °F 84% 29.77 in 2.5 mi SE 6.9 mph - N/A   Haze
10:00 AM 86.0 °F 99.3 °F 78.8 °F 79% 29.77 in 2.5 mi ESE 6.9 mph - N/A   Haze
11:00 AM 87.8 °F 102.5 °F 78.8 °F 75% 29.77 in 2.5 mi ESE 6.9 mph - N/A   Haze
12:00 PM 89.6 °F 104.7 °F 78.8 °F 70% 29.74 in 2.5 mi SE 8.1 mph - N/A   Haze
1:00 PM 87.8 °F 102.5 °F 78.8 °F 75% 29.71 in 2.5 mi SE 6.9 mph - N/A   Haze
2:00 PM 86.0 °F 99.3 °F 78.8 °F 79% 29.68 in 2.5 mi Variable 1.2 mph - N/A Rain Light Rain
2:30 PM 90 °F - 78 °F 60% 29.60 in 2 mi East 2.3 mph - -   Haze
3:00 PM 89.6 °F 104.7 °F 78.8 °F 70% 29.65 in 2.5 mi Variable 1.2 mph - N/A   Haze
5:00 PM 78.8 °F - 78.8 °F 100% 29.65 in 1.6 mi Calm Calm - N/A Rain , Thunderstorm Light Thunderstorms and Rain
5:30 PM 81 °F - 79 °F 90% 29.58 in 1 mi NW 2.3 mph - - Thunderstorm Thunderstorm
8:00 PM 80.6 °F 88.1 °F 78.8 °F 94% 29.71 in 1.6 mi East 3.5 mph - N/A Thunderstorm Thunderstorm
8:30 PM 80 °F - 77 °F 87% 29.65 in 1 mi Calm Calm - - Thunderstorm Thunderstorm
9:00 PM 78.8 °F - 78.8 °F 100% 29.74 in 0.9 mi SE 8.1 mph - N/A Rain , Thunderstorm Thunderstorms and Rain
10:00 PM 78.8 °F - 78.8 °F 100% 29.74 in 0.9 mi Calm Calm - N/A Rain , Thunderstorm Thunderstorms and Rain
11:00 PM 78.8 °F - 77.0 °F 94% 29.71 in 1.2 mi Calm Calm - N/A   Overcast
11:30 PM 79 °F - 78 °F 95% 29.65 in 1 mi Calm Calm - - Thunderstorm Thunderstorm